{"data":{"norad_id":45711,"intl_designator":"2020-035BG","name":"STARLINK-1433","alt_names":[],"object_type":"PAYLOAD","status":"ACTIVE","operator":null,"country":"US","launch_date":"2020-06-04","launch_site_code":"AFETR","launch_vehicle":null,"mission":null,"orbit_class":"UNKNOWN","rcs_meters":null,"size_class":null,"mass_kg":null,"dimensions":null,"purposes":["comms"],"wikipedia_slug":null,"has_3d_model":false,"image_url":null,"decayed_at":null,"tle_current":{"epoch":"2026-09-20T06:00:02.000160Z","epoch_age_seconds":39953,"freshness":"FRESH","line1":"1 45711U 20035BG  26263.25002315  .01036016  53085-3  21159-2 0  9996","line2":"2 45711  53.0328 134.3234 0000801 106.4448 158.0534 15.98927844  6039","mean_motion":15.98927844,"eccentricity":8.01e-5,"inclination_deg":53.0328,"raan_deg":134.3234,"arg_perigee_deg":106.4448,"mean_anomaly_deg":158.0534,"bstar":0.0021159,"rev_number":603,"period_min":90.060349214858,"perigee_km":276.8591612746,"apogee_km":277.92537706352,"semimajor_km":6655.5292691691,"source":"CELESTRAK","updated_at":"2026-09-20T09:00:38.454977Z"}}}